This is the latest recevied weather packets stored in our database for station/object AF5AA. If no packets are shown the sender has not sent any weather packets the latest 10 day(s).
| Time | Temp. | Humidity | Pressure | Rain* | Wind** | Luminosity | Snow |
|---|---|---|---|---|---|---|---|
| 1778101813 | 18.33° C | 86% | 1011.6 hPa | 0 mm | - | 26 W/m² | - |
| 1778101509 | 18.33° C | 85% | 1011.4 hPa | 0 mm | - | 29 W/m² | - |
| 1778101206 | 18.89° C | 85% | 1011.1 hPa | 0 mm | - | 33 W/m² | - |
| 1778100902 | 18.33° C | 86% | 1011 hPa | 0 mm | - | 73 W/m² | - |
| 1778100598 | 18.33° C | 86% | 1010.9 hPa | 0 mm | - | 124 W/m² | - |
| 1778100296 | 18.33° C | 85% | 1010.9 hPa | 0 mm | - | 64 W/m² | - |
| 1778099993 | 18.33° C | 86% | 1010.6 hPa | 0 mm | - | 135 W/m² | - |
| 1778099691 | 18.33° C | 84% | 1010.7 hPa | 0 mm | - | 123 W/m² | - |
| 1778099387 | 18.33° C | 85% | 1010.7 hPa | 0 mm | - | 94 W/m² | - |
| 1778099085 | 17.78° C | 86% | 1010.6 hPa | 0 mm | - | 135 W/m² | - |
| 1778098781 | 18.33° C | 86% | 1011.1 hPa | 0 mm | - | 118 W/m² | - |
| 1778098479 | 18.33° C | 85% | 1011.3 hPa | 0 mm | - | 100 W/m² | - |
| 1778098175 | 18.33° C | 85% | 1010.9 hPa | 0 mm | - | 89 W/m² | - |
| 1778097871 | 17.78° C | 86% | 1011.2 hPa | 0 mm | - | 74 W/m² | - |
| 1778097568 | 18.33° C | 85% | 1011.3 hPa | 0 mm | - | 72 W/m² | - |
| 1778097265 | 18.33° C | 84% | 1011.2 hPa | 0 mm | - | 86 W/m² | - |
| 1778096962 | 18.33° C | 84% | 1011.3 hPa | 0 mm | - | 101 W/m² | - |
| 1778096659 | 18.33° C | 83% | 1011.3 hPa | 0 mm | - | 113 W/m² | - |
| 1778096356 | 18.33° C | 84% | 1011.6 hPa | 0 mm | - | 93 W/m² | - |
| 1778096053 | 18.33° C | 84% | 1011.5 hPa | 0 mm | - | 117 W/m² | - |
| 1778095749 | 18.33° C | 84% | 1011.6 hPa | 0 mm | - | 125 W/m² | - |
| 1778095446 | 18.33° C | 84% | 1011.6 hPa | 0 mm | - | 104 W/m² | - |
| 1778095143 | 18.33° C | 84% | 1011.4 hPa | 0 mm | - | 103 W/m² | - |
| 1778094839 | 18.33° C | 83% | 1011.7 hPa | 0 mm | - | 83 W/m² | - |
| 1778094536 | 18.33° C | 83% | 1011.4 hPa | 0 mm | - | 90 W/m² | - |
* Rain latest hour (hover to see other rain measurements)
** Current wind speed in m/s (hover to see current wind gust speed)